Date,TemperatureHighF,TemperatureAvgF,TemperatureLowF,DewpointHighF,DewpointAvgF,DewpointLowF,HumidityHigh,HumidityAvg,HumidityLow,PressureMaxIn,PressureMinIn,WindSpeedMaxMPH,WindSpeedAvgMPH,GustSpeedMaxMPH,PrecipitationSumIn
2013-1-1,60.3,50.6,41.9,58.7,47.1,37.3,95,88,77,29.64,29.37,8,3,8,0.08
2013-1-2,44.8,40.7,37.1,37.3,31.6,29.1,83,70,55,29.72,29.62,7,2,7,0.00
2013-1-3,45.9,41.4,37.1,33.0,31.3,29.4,80,68,56,29.85,29.70,7,2,7,0.00
2013-1-4,42.8,40.1,37.1,38.7,36.4,32.5,92,87,67,29.90,29.77,5,2,6,0.11
2013-1-5,56.9,45.5,38.2,46.1,40.0,34.6,90,82,64,29.78,29.62,6,1,6,0.00
2013-1-6,58.3,43.8,35.5,36.0,32.4,29.6,91,68,36,29.79,29.68,7,2,7,0.00
2013-1-7,56.2,45.4,34.0,44.8,35.4,27.2,80,69,53,29.73,29.45,8,2,8,0.00
2013-1-8,56.5,51.1,47.5,55.4,49.4,44.3,96,94,80,29.45,29.25,7,2,7,0.43
2013-1-9,63.5,57.4,50.9,58.8,55.0,48.4,97,92,83,29.45,29.27,12,3,12,1.28
2013-1-10,64.6,54.1,45.0,49.0,45.5,42.0,95,75,49,29.47,29.39,19,4,19,0.00
2013-1-11,68.6,59.3,43.6,65.0,55.0,40.1,93,86,76,29.44,29.24,10,2,10,0.00
2013-1-12,73.1,67.2,52.0,67.9,62.2,40.1,95,85,58,29.27,29.09,13,4,13,0.00
2013-1-13,53.1,46.2,39.2,40.4,32.0,27.6,65,58,43,29.56,29.26,12,5,14,0.00
2013-1-14,52.2,41.7,35.1,35.6,29.2,23.2,71,61,51,29.63,29.49,10,4,10,0.00
2013-1-15,42.1,37.7,34.7,35.8,32.6,24.3,92,82,66,29.65,29.49,9,4,9,0.00
2013-1-16,52.7,40.8,32.0,24.3,20.5,14.0,65,46,22,29.75,29.59,14,3,14,0.00
2013-1-17,64.8,48.8,34.0,36.7,31.1,22.5,71,53,31,29.88,29.70,7,2,7,0.00
2013-1-18,63.0,48.8,35.6,40.2,33.8,28.1,77,58,37,29.92,29.72,10,2,10,0.00
2013-1-19,66.6,50.7,37.6,49.3,39.5,31.8,85,67,46,29.73,29.57,12,2,12,0.00
2013-1-20,69.1,54.2,40.7,55.6,45.0,35.7,88,72,50,29.67,29.52,9,2,9,0.00
2013-1-21,72.0,56.5,43.6,58.2,47.6,39.3,89,73,51,29.65,29.55,7,2,8,0.00
2013-1-22,70.9,58.3,46.6,53.8,47.5,41.1,82,69,51,29.72,29.61,11,2,11,0.00
2013-1-23,73.6,60.7,47.5,59.6,52.7,42.9,89,76,59,29.76,29.62,12,2,12,0.00
2013-1-24,76.9,65.1,57.8,64.8,59.2,54.5,94,82,63,29.68,29.53,10,3,10,0.00
2013-1-25,77.6,67.3,60.5,64.7,60.7,57.0,92,80,62,29.58,29.45,12,3,12,0.00
2013-1-26,70.2,62.6,55.6,61.1,57.6,53.2,92,84,72,29.58,29.45,8,2,8,0.00
2013-1-27,78.1,67.8,59.4,66.4,62.4,56.9,93,83,65,29.51,29.37,17,5,17,0.00
2013-1-28,74.7,70.7,67.9,68.1,66.0,64.6,91,85,75,29.47,29.30,14,5,14,0.00
2013-1-29,83.2,70.5,56.2,68.4,56.7,26.3,89,66,31,29.30,28.94,21,6,21,0.00
2013-1-30,58.5,51.6,39.1,27.0,19.7,11.3,47,29,17,29.65,29.25,20,5,20,0.00
2013-1-31,66.6,49.0,34.2,27.0,23.1,19.6,58,39,19,29.72,29.59,14,3,14,0.00